Horseheads, NY

6:00 PM EST on February 22, 2017 (GMT -0500)
Elmira-Corning Regional

Weather History for KELM - September, 2013

Change the Weather History Date:

Thursday, September 5, 2013

  Actual Average Record
Temperature  
Mean Temperature 58 °F -  
Max Temperature 72 °F 76 °F 95 °F (1953)
Min Temperature 45 °F 51 °F 36 °F (1974)
Degree Days  
Heating Degree Days 6    
Growing Degree Days 8 (Base 50)    
Moisture  
Dew Point 49 °F    
Average Humidity 66    
Maximum Humidity 86    
Minimum Humidity 40    
Precipitation  
Precipitation 0.02 in - - ()
Sea Level Pressure  
Sea Level Pressure 30.08 in    
Wind  
Wind Speed 6 mph (NNW)    
Max Wind Speed 10 mph    
Max Gust Speed 24 mph    
Visibility 10 miles    
Events Rain    
Averages and records for this station are not official NWS values.
T = Trace of Precipitation, MM = Missing Value Source: NWS Daily Summary

Daily Weather History Graph

Daily Weather History Graph

Search for Another Location

Airport or City:

Trip Planner

Search our weather history database for the weather conditions in past years. The results will help you decide how hot, cold, wet, or windy it might be!

Date:

Astronomy

Sep. 05, 2013 Rise Set
Actual Time 6:37 AM EDT 7:34 PM EDT
Civil Twilight 6:08 AM EDT 8:02 PM EDT
Nautical Twilight 5:34 AM EDT 8:36 PM EDT
Astronomical Twilight 4:59 AM EDT 9:11 PM EDT
Moon 6:48 AM EDT (9/5) 7:23 PM EDT (9/5)
Length of Visible Light 13h 53m
Length of Day
12h 56m
New Moon, 0% of the Moon is Illuminated
Sep 5
New Moon
Sep 12
First Quarter
Sep 19
Full
Sep 26
Last Quarter
Oct 4
New

Hourly Weather History & Observations

Time (EDT) Temp. Dew Point Humidity Pressure Visibility Wind Dir Wind Speed Gust Speed Precip Events Conditions
12:53 AM 64.0 °F 55.0 °F 73% 29.96 in 10.0 mi WSW 6.9 mph - N/A   Mostly Cloudy
1:53 AM 64.9 °F 55.0 °F 70% 29.96 in 10.0 mi WSW 4.6 mph - N/A   Overcast
2:53 AM 63.0 °F 55.9 °F 78% 29.97 in 6.0 mi West 8.1 mph - 0.01 in Rain Light Rain
3:08 AM 62.6 °F 57.2 °F 82% 29.97 in 9.0 mi WNW 4.6 mph - 0.01 in Rain Light Rain
3:18 AM 62.6 °F 57.2 °F 82% 29.97 in 8.0 mi West 3.5 mph - 0.01 in Rain Light Rain
3:53 AM 63.0 °F 57.9 °F 84% 29.97 in 10.0 mi SW 4.6 mph - 0.01 in   Overcast
4:53 AM 62.1 °F 57.9 °F 86% 29.99 in 10.0 mi Calm Calm - N/A   Overcast
5:32 AM 62.6 °F 57.2 °F 82% 30.01 in 10.0 mi Variable 3.5 mph - 0.00 in   Overcast
5:39 AM 62.6 °F 55.4 °F 77% 30.02 in 10.0 mi Variable 4.6 mph - 0.00 in   Overcast
5:53 AM 61.0 °F 54.0 °F 78% 30.02 in 10.0 mi North 8.1 mph - 0.00 in   Overcast
6:53 AM 59.0 °F 50.0 °F 72% 30.04 in 10.0 mi WSW 3.5 mph - N/A   Scattered Clouds
7:53 AM 57.9 °F 51.1 °F 78% 30.07 in 10.0 mi West 8.1 mph - N/A   Clear
8:53 AM 62.1 °F 52.0 °F 70% 30.07 in 10.0 mi NNE 9.2 mph - N/A   Partly Cloudy
9:45 AM 62.6 °F 51.8 °F 68% 30.09 in 10.0 mi North 5.8 mph - N/A   Mostly Cloudy
9:53 AM 63.0 °F 50.0 °F 63% 30.09 in 10.0 mi NE 4.6 mph - N/A   Mostly Cloudy
10:04 AM 64.4 °F 50.0 °F 59% 30.10 in 10.0 mi NNE 9.2 mph - N/A   Mostly Cloudy
10:15 AM 64.4 °F 48.2 °F 56% 30.10 in 10.0 mi ENE 6.9 mph - N/A   Scattered Clouds
10:53 AM 64.9 °F 46.0 °F 50% 30.09 in 10.0 mi NNE 8.1 mph - N/A   Clear
11:53 AM 66.9 °F 46.0 °F 47% 30.10 in 10.0 mi NE 9.2 mph - N/A   Partly Cloudy
12:53 PM 66.0 °F 45.0 °F 47% 30.10 in 10.0 mi NNE 10.4 mph 24.2 mph N/A   Overcast
1:53 PM 68.0 °F 46.0 °F 45% 30.10 in 10.0 mi NNW 8.1 mph - N/A   Mostly Cloudy
2:53 PM 69.1 °F 44.1 °F 40% 30.09 in 10.0 mi NW 10.4 mph 16.1 mph N/A   Partly Cloudy
3:53 PM 66.9 °F 46.0 °F 47% 30.09 in 10.0 mi North 9.2 mph 18.4 mph N/A   Mostly Cloudy
4:53 PM 64.9 °F 46.0 °F 50% 30.11 in 10.0 mi North 10.4 mph - N/A   Clear
5:53 PM 64.9 °F 45.0 °F 48% 30.13 in 10.0 mi NNE 10.4 mph - N/A   Clear
6:53 PM 62.1 °F 44.1 °F 52% 30.15 in 10.0 mi NNE 5.8 mph - N/A   Clear
7:53 PM 55.9 °F 43.0 °F 62% 30.17 in 10.0 mi North 5.8 mph - N/A   Clear
8:53 PM 52.0 °F 43.0 °F 71% 30.19 in 10.0 mi NNE 3.5 mph - N/A   Clear
9:53 PM 50.0 °F 43.0 °F 77% 30.22 in 10.0 mi Calm Calm - N/A   Clear
10:53 PM 48.0 °F 41.0 °F 77% 30.23 in 10.0 mi SW 3.5 mph - N/A   Clear
11:53 PM 45.0 °F 39.9 °F 82% 30.23 in 10.0 mi Calm Calm - N/A   Clear